Tracking 35275 objects as of 8-Sep-2026
HD Live streaming from Space Station
objects crossing your sky now

OBJECT L

Track OBJECT L now!
10-day predictions


NORAD ID: 63992
Int'l Code: 2025-100L
Launch date: May 14, 2025
Source: People's Republic of China (PRC)
Launch site: Jiuquan Satellite Launch Center, China (JSC)
Your satellite tracking list
Your tracking list is empty




NASA's NSSDC Master Catalog

Two Line Element Set (TLE):
1 63992U 25100L   26251.61735902  .00014365  00000-0  63992-3 0  9997
2 63992  97.3608 322.6702 0008805  22.7000 337.4623 15.21511564 73298
Source of the keplerian elements: AFSPC